Lid_Strength_Index
6 6 8 7 7 7 8 8 10 9 8 9 9 9 8 7 7 7 6 5 4 4 2 2 1 1 1 0 0 0 0 -0 -0 0 0 0 1 -0 -1 -1 -2 -2 -2 -2
6 7 5 6 6 7 7 9 10 9 8 8 9 9 8 7 7 6 7 5 4 4 3 2 2 1 1 1 0 0 -0 -0 -0 -0 -1 -1 -1 -0 -1 -1 -1 -2 -1 -1
7 6 5 6 7 8 7 9 9 10 9 8 9 10 9 7 6 6 6 5 4 4 4 3 2 2 1 1 1 0 0 -0 -1 -1 -0 -0 -1 -1 0 -0 -0 -1 -1 -1
6 5 6 7 7 6 8 6 8 9 10 13 8 14 10 8 8 7 6 6 5 4 3 3 2 2 1 1 0 0 -0 -0 -0 -1 -0 -0 1 1 0 -0 -1 -1 -1 -1
7 6 6 8 6 7 7 7 8 8 8 9 10 11 10 8 9 8 6 6 5 4 3 3 2 2 1 1 1 0 -0 -0 -1 -1 -1 -0 0 0 -0 -0 -0 -1 -1 -1
6 5 6 6 6 7 6 8 8 8 8 12 9 10 11 9 8 7 6 5 4 4 3 2 2 1 1 1 1 0 0 0 -0 -0 -0 -0 0 0 0 0 1 0 -0 -0
6 6 6 5 7 6 7 8 12 13 13 12 9 10 9 7 7 6 6 5 4 4 3 3 3 2 2 1 1 1 0 1 0 -0 -0 -0 -0 -0 -0 0 0 -0 0 0
9 10 6 5 6 7 7 7 10 15 12 10 9 11 10 6 5 5 5 5 4 4 3 3 2 2 2 1 1 1 1 1 0 0 -0 -0 -0 0 0 -0 -0 0 -0 -0
8 9 6 5 5 5 7 9 6 9 9 11 9 9 7 6 6 6 6 5 5 4 3 3 2 2 2 1 1 1 1 1 0 0 0 -0 -0 -0 -0 -1 -1 -0 -1 -1
6 9 6 6 5 5 6 5 9 9 13 14 11 10 9 8 7 6 6 6 5 4 4 3 3 2 2 1 1 1 0 1 0 0 0 0 -0 -0 -1 -1 -0 -1 -1 -1
5 7 8 6 7 7 7 8 7 8 9 12 12 10 6 7 7 7 6 5 5 4 4 3 2 2 2 1 1 1 1 1 1 0 0 0 -0 -0 -0 -0 -0 -1 -1 -1
5 7 9 8 6 5 6 7 7 10 11 9 10 10 5 6 6 6 6 5 4 4 4 3 2 2 2 2 1 1 1 1 0 0 0 0 -0 -0 -0 0 -0 -1 -1 -1
5 7 10 9 7 6 7 7 6 7 7 10 12 10 6 6 6 5 5 5 5 4 4 3 3 2 2 2 2 1 1 1 0 0 0 0 0 0 0 -0 -0 -1 -1 -1
4 7 8 10 9 7 8 7 7 7 9 9 9 8 7 6 6 6 5 5 4 4 4 4 3 3 2 2 2 2 1 1 1 0 0 1 0 0 0 -0 -0 -0 -1 -0
5 8 7 7 7 7 7 8 7 8 7 9 8 8 6 6 6 5 5 5 5 4 4 4 3 3 3 2 2 2 1 1 0 1 1 1 0 -0 -0 -0 -0 -0 -0 -0
5 8 7 8 7 7 8 7 7 7 7 7 7 7 6 5 5 5 5 5 5 4 4 3 3 3 3 3 3 2 2 2 1 1 1 0 0 0 0 0 0 -0 -0 -0
6 7 8 10 7 8 10 8 7 7 6 6 8 6 6 7 6 6 5 5 5 4 4 3 3 2 2 2 2 2 1 1 1 1 1 1 1 1 0 0 0 0 0 -0
6 7 7 9 9 13 7 5 6 7 6 6 6 5 6 6 5 4 4 4 4 4 3 3 2 2 1 1 1 1 1 1 1 1 1 1 1 1 1 0 1 0 0 1
5 6 8 10 10 9 8 7 7 8 8 6 6 6 6 5 5 5 3 3 3 3 2 2 1 2 2 2 1 1 2 2 1 2 1 1 1 1 1 1 1 1 1 1
5 5 8 9 11 13 8 5 4 5 10 5 5 6 6 5 7 6 3 3 3 2 2 2 2 2 1 1 1 1 2 2 2 1 1 1 0 1 1 1 1 0 0 1
8 8 9 10 10 8 6 5 4 10 8 4 4 4 5 5 5 3 3 3 2 2 2 2 2 2 1 1 1 2 2 2 1 1 1 1 0 1 1 1 0 1 1 1
9 10 9 9 10 12 4 5 8 5 4 4 4 4 4 4 3 3 3 3 2 2 2 2 2 2 1 1 1 2 2 1 1 1 1 1 1 1 1 1 1 1 1 2
9 7 8 7 8 5 4 4 3 3 4 3 3 3 3 3 4 3 3 3 2 2 2 2 2 2 1 1 1 2 2 1 1 1 1 2 2 2 1 1 1 2 2 2
6 6 7 8 6 5 4 3 3 3 3 3 3 3 3 3 3 3 2 2 2 2 2 2 2 2 2 1 1 1 1 1 1 2 2 2 3 3 4 5 3 2 2 2
6 6 6 6 6 5 4 3 3 3 3 3 2 3 3 3 3 2 2 2 2 2 2 2 2 2 2 1 1 1 1 1 1 2 3 2 3 5 7 9 10 6 8 5
5 6 7 7 5 5 4 3 3 3 3 3 3 3 2 2 3 2 3 2 2 2 2 2 2 2 2 2 1 2 1 1 2 4 3 3 4 5 6 7 8 12 12 12